| time (UTC) | temp F | wind direction | speed MPH | gust MPH | rain 1hr in | rain 24hr in | rain mn in | humidity % | barometer mb |
| 20260508035601 | 53 | 99 | 0.0 | 0.0 | 0.00 | 0.31 | 0.28 | 85 | 1015.0 |
| 20260508035057 | 54 | 99 | 0.0 | 0.0 | 0.00 | 0.31 | 0.28 | 85 | 1015.1 |
| 20260508034557 | 54 | 99 | 0.0 | 0.0 | 0.00 | 0.31 | 0.28 | 85 | 1015.1 |
| 20260508034055 | 54 | 99 | 0.0 | 0.0 | 0.00 | 0.31 | 0.28 | 85 | 1015.0 |
| 20260508033555 | 54 | 99 | 0.0 | 0.0 | 0.00 | 0.31 | 0.28 | 85 | 1014.9 |
| 20260508033057 | 54 | 99 | 0.0 | 0.0 | 0.00 | 0.31 | 0.28 | 85 | 1015.0 |
| 20260508032556 | 54 | 99 | 0.0 | 0.0 | 0.00 | 0.31 | 0.28 | 85 | 1014.9 |
| 20260508032053 | 54 | 99 | 0.0 | 1.0 | 0.00 | 0.31 | 0.28 | 85 | 1015.0 |
| 20260508031602 | 55 | 99 | 0.0 | 1.0 | 0.00 | 0.31 | 0.28 | 84 | 1014.8 |
| 20260508031052 | 55 | 99 | 0.0 | 0.0 | 0.00 | 0.31 | 0.28 | 84 | 1014.9 |
| 20260508030552 | 55 | 99 | 0.0 | 0.0 | 0.00 | 0.31 | 0.28 | 84 | 1014.8 |
| 20260508030100 | 55 | 99 | 0.0 | 0.0 | 0.00 | 0.31 | 0.28 | 84 | 1014.7 |
| 20260508025551 | 55 | 99 | 0.0 | 0.0 | 0.00 | 0.39 | 0.28 | 84 | 1014.8 |
| 20260508025051 | 55 | 99 | 0.0 | 0.0 | 0.00 | 0.39 | 0.28 | 84 | 1014.7 |
| 20260508024550 | 55 | 99 | 0.0 | 0.0 | 0.00 | 0.39 | 0.28 | 84 | 1014.6 |
| 20260508024053 | 55 | 99 | 0.0 | 1.0 | 0.00 | 0.39 | 0.28 | 84 | 1014.6 |
| 20260508023551 | 55 | 99 | 0.0 | 1.0 | 0.00 | 0.39 | 0.28 | 84 | 1014.5 |
| 20260508023050 | 56 | 99 | 0.0 | 1.0 | 0.00 | 0.39 | 0.28 | 84 | 1014.6 |
| 20260508022551 | 56 | 99 | 0.0 | 0.0 | 0.00 | 0.39 | 0.28 | 84 | 1014.6 |
| 20260508022049 | 56 | 99 | 0.0 | 0.0 | 0.00 | 0.39 | 0.28 | 83 | 1014.6 |
| 20260508021551 | 56 | 99 | 0.0 | 2.0 | 0.00 | 0.39 | 0.28 | 83 | 1014.6 |
| 20260508021048 | 56 | 99 | 1.0 | 3.0 | 0.00 | 0.39 | 0.28 | 83 | 1014.5 |
| 20260508020547 | 57 | 103 | 1.0 | 3.0 | 0.00 | 0.39 | 0.28 | 83 | 1014.5 |
| 20260508020050 | 57 | 128 | 1.0 | 2.0 | 0.00 | 0.39 | 0.28 | 82 | 1014.3 |
| 20260508015547 | 58 | 240 | 0.0 | 1.0 | 0.00 | 0.39 | 0.28 | 80 | 1014.3 |
| 20260508015048 | 58 | 240 | 0.0 | 1.0 | 0.00 | 0.39 | 0.28 | 80 | 1014.3 |
| 20260508014546 | 58 | 240 | 0.0 | 1.0 | 0.00 | 0.39 | 0.28 | 79 | 1014.3 |
| 20260508014046 | 59 | 240 | 0.0 | 1.0 | 0.00 | 0.39 | 0.28 | 78 | 1014.2 |
| 20260508013544 | 59 | 240 | 0.0 | 0.0 | 0.00 | 0.39 | 0.28 | 78 | 1014.1 |
| 20260508013044 | 59 | 240 | 0.0 | 0.0 | 0.00 | 0.39 | 0.28 | 77 | 1014.2 |
| 20260508012543 | 60 | 240 | 0.0 | 1.0 | 0.00 | 0.39 | 0.28 | 76 | 1014.1 |
| 20260508012047 | 60 | 240 | 0.0 | 1.0 | 0.00 | 0.39 | 0.28 | 76 | 1013.9 |
| 20260508011546 | 60 | 240 | 0.0 | 1.0 | 0.00 | 0.39 | 0.28 | 74 | 1013.9 |
| 20260508011043 | 60 | 240 | 0.0 | 2.0 | 0.00 | 0.39 | 0.28 | 72 | 1013.7 |
| 20260508010540 | 61 | 240 | 0.0 | 2.0 | 0.00 | 0.39 | 0.28 | 71 | 1013.6 |
| 20260508010041 | 61 | 240 | 0.0 | 0.0 | 0.00 | 0.39 | 0.28 | 70 | 1013.5 |
| 20260508005543 | 61 | 240 | 0.0 | 0.0 | 0.00 | 0.46 | 0.28 | 71 | 1013.6 |
| 20260508005042 | 61 | 240 | 0.0 | 0.0 | 0.00 | 0.46 | 0.28 | 72 | 1013.5 |
| 20260508004541 | 61 | 240 | 0.0 | 1.0 | 0.00 | 0.46 | 0.28 | 72 | 1013.4 |
| 20260508004039 | 61 | 240 | 0.0 | 1.0 | 0.00 | 0.46 | 0.28 | 72 | 1013.3 |
| 20260508003539 | 61 | 236 | 0.0 | 0.0 | 0.00 | 0.46 | 0.28 | 71 | 1013.3 |
| 20260508003039 | 61 | 236 | 0.0 | 0.0 | 0.00 | 0.46 | 0.28 | 72 | 1013.2 |
| 20260508002539 | 61 | 236 | 0.0 | 0.0 | 0.00 | 0.46 | 0.28 | 70 | 1013.3 |
| 20260508002043 | 62 | 236 | 0.0 | 1.0 | 0.00 | 0.46 | 0.28 | 70 | 1013.1 |
| 20260508001539 | 62 | 236 | 0.0 | 2.0 | 0.00 | 0.46 | 0.28 | 68 | 1013.0 |
| 20260508001038 | 63 | 236 | 0.0 | 2.0 | 0.00 | 0.46 | 0.28 | 65 | 1012.8 |
| 20260508000538 | 63 | 236 | 0.0 | 2.0 | 0.00 | 0.46 | 0.28 | 64 | 1012.8 |
| 20260508000050 | 63 | 236 | 0.0 | 2.0 | 0.00 | 0.46 | 0.28 | 63 | 1012.8 |
| 20260507235541 | 64 | 236 | 0.0 | 2.0 | 0.00 | 0.56 | 0.28 | 66 | 1012.8 |
| 20260507235037 | 64 | 236 | 0.0 | 2.0 | 0.00 | 0.56 | 0.28 | 65 | 1012.8 |
| 20260507234544 | 64 | 236 | 0.0 | 2.0 | 0.00 | 0.56 | 0.28 | 65 | 1012.7 |
| 20260507234039 | 64 | 355 | 0.0 | 2.0 | 0.00 | 0.56 | 0.28 | 65 | 1012.6 |
| 20260507233537 | 64 | 355 | 0.0 | 2.0 | 0.00 | 0.56 | 0.28 | 64 | 1012.7 |
| 20260507233037 | 64 | 355 | 0.0 | 2.0 | 0.00 | 0.56 | 0.28 | 65 | 1012.8 |
| 20260507232537 | 64 | 125 | 0.0 | 2.0 | 0.00 | 0.56 | 0.28 | 64 | 1012.8 |
| 20260507232036 | 64 | 125 | 0.0 | 1.0 | 0.00 | 0.56 | 0.28 | 66 | 1012.8 |
| 20260507231543 | 64 | 338 | 0.0 | 1.0 | 0.00 | 0.56 | 0.28 | 67 | 1012.6 |
| 20260507231036 | 64 | 338 | 0.0 | 1.0 | 0.00 | 0.56 | 0.28 | 69 | 1012.6 |
| 20260507230540 | 64 | 338 | 0.0 | 1.0 | 0.00 | 0.56 | 0.28 | 68 | 1012.6 |
| 20260507230038 | 64 | 338 | 0.0 | 1.0 | 0.00 | 0.56 | 0.28 | 66 | 1012.6 |
| 20260507225536 | 65 | 338 | 0.0 | 1.0 | 0.00 | 1.00 | 0.28 | 66 | 1012.7 |
| 20260507225036 | 65 | 338 | 0.0 | 2.0 | 0.00 | 1.00 | 0.28 | 62 | 1012.6 |
| 20260507224536 | 66 | 338 | 1.0 | 3.0 | 0.00 | 1.00 | 0.28 | 61 | 1012.6 |
| 20260507224035 | 66 | 306 | 0.0 | 3.0 | 0.00 | 1.00 | 0.28 | 59 | 1012.6 |
| 20260507223538 | 67 | 331 | 1.0 | 3.0 | 0.00 | 1.00 | 0.28 | 60 | 1012.6 |
| 20260507223035 | 67 | 291 | 0.0 | 3.0 | 0.00 | 1.00 | 0.28 | 62 | 1012.5 |
| 20260507222535 | 67 | 262 | 0.0 | 2.0 | 0.00 | 1.00 | 0.28 | 62 | 1012.6 |
| 20260507222035 | 67 | 253 | 0.0 | 2.0 | 0.00 | 1.00 | 0.28 | 61 | 1012.5 |
| 20260507221534 | 67 | 258 | 0.0 | 3.0 | 0.00 | 1.00 | 0.28 | 63 | 1012.5 |
| 20260507221034 | 67 | 311 | 1.0 | 4.0 | 0.00 | 1.00 | 0.28 | 60 | 1012.5 |
| 20260507220539 | 67 | 307 | 1.0 | 4.0 | 0.00 | 1.00 | 0.28 | 62 | 1012.5 |
| 20260507220034 | 67 | 298 | 2.0 | 4.0 | 0.00 | 1.00 | 0.28 | 59 | 1012.5 |
| 20260507215534 | 67 | 298 | 1.0 | 3.0 | 0.00 | 1.18 | 0.28 | 63 | 1012.5 |
| 20260507215035 | 67 | 331 | 1.0 | 3.0 | 0.00 | 1.18 | 0.28 | 61 | 1012.5 |
| 20260507214539 | 67 | 161 | 0.0 | 4.0 | 0.00 | 1.18 | 0.28 | 62 | 1012.4 |
| 20260507214034 | 67 | 269 | 1.0 | 4.0 | 0.00 | 1.18 | 0.28 | 62 | 1012.4 |
| 20260507213534 | 67 | 294 | 1.0 | 3.0 | 0.00 | 1.18 | 0.28 | 63 | 1012.4 |
| 20260507213039 | 67 | 273 | 1.0 | 2.0 | 0.00 | 1.18 | 0.28 | 62 | 1012.3 |
| 20260507212533 | 67 | 305 | 1.0 | 2.0 | 0.00 | 1.18 | 0.28 | 66 | 1012.3 |
| 20260507212035 | 67 | 337 | 1.0 | 3.0 | 0.00 | 1.18 | 0.28 | 60 | 1012.2 |
| 20260507211542 | 68 | 283 | 1.0 | 3.0 | 0.00 | 1.18 | 0.28 | 61 | 1012.1 |
| 20260507211029 | 67 | 341 | 1.0 | 2.0 | 0.00 | 1.18 | 0.28 | 66 | 1012.1 |
| 20260507210530 | 67 | 261 | 1.0 | 4.0 | 0.00 | 1.18 | 0.28 | 62 | 1012.1 |
| 20260507210029 | 67 | 240 | 2.0 | 4.0 | 0.00 | 1.18 | 0.28 | 64 | 1012.1 |
| 20260507205529 | 66 | 10 | 1.0 | 3.0 | 0.00 | 1.30 | 0.28 | 64 | 1012.0 |
| 20260507205027 | 66 | 355 | 0.0 | 3.0 | 0.00 | 1.30 | 0.28 | 66 | 1012.2 |
| 20260507204527 | 65 | 346 | 1.0 | 2.0 | 0.00 | 1.30 | 0.28 | 69 | 1012.0 |
| 20260507204027 | 65 | 265 | 0.0 | 2.0 | 0.00 | 1.30 | 0.28 | 69 | 1011.9 |
| 20260507203527 | 65 | 265 | 0.0 | 2.0 | 0.00 | 1.30 | 0.28 | 71 | 1011.9 |
| 20260507203026 | 64 | 346 | 0.0 | 2.0 | 0.00 | 1.30 | 0.28 | 70 | 1012.0 |
| 20260507202525 | 64 | 42 | 0.0 | 1.0 | 0.00 | 1.30 | 0.28 | 76 | 1012.0 |
| 20260507202026 | 64 | 42 | 0.0 | 1.0 | 0.00 | 1.30 | 0.28 | 75 | 1012.0 |
| 20260507201525 | 64 | 42 | 0.0 | 2.0 | 0.00 | 1.30 | 0.28 | 73 | 1011.9 |
| 20260507201025 | 64 | 249 | 0.0 | 2.0 | 0.00 | 1.30 | 0.28 | 72 | 1012.0 |
| 20260507200525 | 65 | 259 | 0.0 | 2.0 | 0.00 | 1.30 | 0.28 | 75 | 1012.0 |
| 20260507200025 | 65 | 259 | 0.0 | 2.0 | 0.00 | 1.30 | 0.28 | 73 | 1012.0 |
| 20260507195525 | 65 | 249 | 0.0 | 4.0 | 0.00 | 1.36 | 0.28 | 73 | 1012.1 |
| 20260507195025 | 65 | 249 | 1.0 | 4.0 | 0.00 | 1.36 | 0.28 | 71 | 1012.1 |
| 20260507194526 | 65 | 355 | 1.0 | 3.0 | 0.00 | 1.36 | 0.28 | 73 | 1012.2 |
| 20260507194025 | 64 | 355 | 0.0 | 4.0 | 0.00 | 1.36 | 0.28 | 70 | 1012.3 |
| 20260507193525 | 65 | 248 | 1.0 | 4.0 | 0.00 | 1.36 | 0.28 | 70 | 1012.2 |
| 20260507193026 | 65 | 249 | 0.0 | 2.0 | 0.00 | 1.36 | 0.28 | 71 | 1012.3 |
| 20260507192523 | 65 | 213 | 0.0 | 3.0 | 0.00 | 1.36 | 0.28 | 70 | 1012.4 |
| 20260507192023 | 66 | 219 | 1.0 | 3.0 | 0.00 | 1.36 | 0.28 | 68 | 1012.3 |
| 20260507191527 | 65 | 340 | 0.0 | 2.0 | 0.00 | 1.36 | 0.28 | 72 | 1012.4 |
| 20260507191025 | 65 | 5 | 0.0 | 2.0 | 0.00 | 1.36 | 0.28 | 71 | 1012.4 |
| 20260507190524 | 65 | 355 | 1.0 | 3.0 | 0.00 | 1.36 | 0.28 | 72 | 1012.6 |
| 20260507190022 | 65 | 5 | 1.0 | 3.0 | 0.00 | 1.36 | 0.28 | 70 | 1012.7 |
| 20260507185520 | 64 | 355 | 0.0 | 3.0 | 0.00 | 1.57 | 0.28 | 72 | 1012.7 |
| 20260507185020 | 65 | 12 | 1.0 | 3.0 | 0.00 | 1.57 | 0.28 | 74 | 1012.7 |
| 20260507184520 | 64 | 338 | 0.0 | 4.0 | 0.00 | 1.57 | 0.28 | 73 | 1012.7 |
| 20260507184022 | 64 | 80 | 2.0 | 4.0 | 0.00 | 1.57 | 0.28 | 72 | 1012.6 |
| 20260507183518 | 63 | 117 | 1.0 | 5.0 | 0.00 | 1.57 | 0.28 | 71 | 1012.7 |
| 20260507183018 | 64 | 124 | 2.0 | 3.0 | 0.00 | 1.57 | 0.28 | 71 | 1012.7 |
| 20260507182518 | 63 | 96 | 0.0 | 2.0 | 0.00 | 1.57 | 0.28 | 74 | 1012.7 |
| 20260507182017 | 63 | 72 | 0.0 | 2.0 | 0.00 | 1.57 | 0.28 | 74 | 1012.9 |
| 20260507181518 | 63 | 194 | 0.0 | 2.0 | 0.00 | 1.57 | 0.28 | 72 | 1012.9 |
| 20260507181022 | 63 | 132 | 0.0 | 3.0 | 0.00 | 1.57 | 0.28 | 75 | 1012.8 |
| 20260507180517 | 63 | 13 | 0.0 | 3.0 | 0.00 | 1.57 | 0.28 | 73 | 1012.8 |
| 20260507180018 | 63 | 141 | 0.0 | 2.0 | 0.00 | 1.57 | 0.28 | 81 | 1012.8 |
| 20260507175522 | 62 | 156 | 1.0 | 2.0 | 0.00 | 1.57 | 0.28 | 72 | 1012.8 |
| 20260507175017 | 62 | 43 | 1.0 | 3.0 | 0.00 | 1.57 | 0.28 | 77 | 1012.9 |
| 20260507174538 | 62 | 154 | 0.0 | 3.0 | 0.00 | 1.57 | 0.28 | 74 | 1012.9 |
| 20260507174018 | 62 | 24 | 1.0 | 3.0 | 0.00 | 1.57 | 0.28 | 76 | 1013.1 |
| 20260507173521 | 61 | 165 | 1.0 | 7.0 | 0.00 | 1.57 | 0.28 | 78 | 1013.2 |
| 20260507173021 | 61 | 92 | 1.0 | 3.0 | 0.00 | 1.57 | 0.28 | 80 | 1013.4 |
| 20260507172515 | 60 | 238 | 0.0 | 3.0 | 0.00 | 1.57 | 0.28 | 79 | 1013.5 |
| 20260507172021 | 60 | 19 | 0.0 | 3.0 | 0.00 | 1.57 | 0.28 | 79 | 1013.5 |
| 20260507171518 | 60 | 344 | 0.0 | 4.0 | 0.00 | 1.57 | 0.28 | 78 | 1013.5 |
| 20260507171014 | 61 | 324 | 0.0 | 4.0 | 0.00 | 1.57 | 0.28 | 79 | 1013.5 |
| 20260507170515 | 61 | 313 | 2.0 | 4.0 | 0.00 | 1.57 | 0.28 | 79 | 1013.4 |
| 20260507170013 | 61 | 333 | 1.0 | 3.0 | 0.00 | 1.57 | 0.28 | 83 | 1013.2 |
| 20260507165521 | 60 | 321 | 0.0 | 3.0 | 0.00 | 1.57 | 0.28 | 82 | 1013.5 |
| 20260507165015 | 60 | 330 | 1.0 | 3.0 | 0.00 | 1.57 | 0.28 | 84 | 1013.6 |
| 20260507164512 | 59 | 10 | 1.0 | 3.0 | 0.00 | 1.57 | 0.28 | 84 | 1013.5 |
| 20260507164014 | 59 | 44 | 1.0 | 3.0 | 0.00 | 1.57 | 0.28 | 83 | 1013.4 |
| 20260507163514 | 59 | 67 | 0.0 | 3.0 | 0.00 | 1.57 | 0.28 | 83 | 1013.4 |
| 20260507163016 | 59 | 336 | 0.0 | 2.0 | 0.00 | 1.57 | 0.28 | 85 | 1013.4 |
| 20260507162511 | 59 | 332 | 1.0 | 2.0 | 0.00 | 1.57 | 0.28 | 87 | 1013.3 |
| 20260507162010 | 58 | 331 | 0.0 | 2.0 | 0.00 | 1.57 | 0.28 | 86 | 1013.3 |
| 20260507161516 | 58 | 345 | 0.0 | 2.0 | 0.00 | 1.57 | 0.28 | 88 | 1013.4 |
| 20260507161013 | 58 | 345 | 0.0 | 2.0 | 0.00 | 1.57 | 0.28 | 89 | 1013.4 |
| 20260507160509 | 57 | 317 | 0.0 | 2.0 | 0.00 | 1.57 | 0.28 | 93 | 1013.5 |
| 20260507160011 | 56 | 57 | 0.0 | 2.0 | 0.00 | 1.57 | 0.28 | 95 | 1013.4 |
| 20260507155507 | 56 | 178 | 0.0 | 3.0 | 0.00 | 1.58 | 0.28 | 96 | 1013.4 |
| 20260507155007 | 56 | 336 | 0.0 | 2.0 | 0.00 | 1.58 | 0.28 | 96 | 1013.4 |
| 20260507154508 | 56 | 344 | 0.0 | 1.0 | 0.00 | 1.58 | 0.28 | 96 | 1013.3 |
| 20260507154009 | 56 | 344 | 0.0 | 1.0 | 0.00 | 1.58 | 0.28 | 96 | 1013.3 |
| 20260507153505 | 56 | 344 | 0.0 | 1.0 | 0.00 | 1.58 | 0.28 | 96 | 1013.3 |
| 20260507153005 | 56 | 344 | 0.0 | 1.0 | 0.00 | 1.58 | 0.28 | 96 | 1013.4 |
| 20260507152506 | 55 | 344 | 0.0 | 2.0 | 0.00 | 1.58 | 0.28 | 96 | 1013.3 |
| 20260507152005 | 55 | 344 | 0.0 | 3.0 | 0.00 | 1.58 | 0.28 | 96 | 1013.2 |
| 20260507151507 | 55 | 344 | 0.0 | 3.0 | 0.00 | 1.58 | 0.28 | 96 | 1013.0 |
| 20260507151005 | 55 | 360 | 0.0 | 2.0 | 0.00 | 1.58 | 0.28 | 96 | 1013.1 |
| 20260507150505 | 55 | 360 | 0.0 | 2.0 | 0.00 | 1.58 | 0.28 | 96 | 1013.0 |
| 20260507150004 | 55 | 309 | 0.0 | 2.0 | 0.00 | 1.58 | 0.28 | 96 | 1013.2 |
| 20260507145507 | 55 | 295 | 0.0 | 2.0 | 0.00 | 2.02 | 0.28 | 96 | 1013.1 |
| 20260507145006 | 55 | 252 | 0.0 | 2.0 | 0.00 | 2.02 | 0.28 | 96 | 1013.1 |
| 20260507144503 | 55 | 252 | 0.0 | 2.0 | 0.00 | 2.02 | 0.28 | 96 | 1013.1 |
| 20260507144003 | 55 | 10 | 0.0 | 2.0 | 0.00 | 2.02 | 0.28 | 96 | 1013.1 |
| 20260507143502 | 55 | 19 | 0.0 | 2.0 | 0.00 | 2.02 | 0.28 | 96 | 1013.2 |
| 20260507143002 | 55 | 53 | 0.0 | 2.0 | 0.00 | 2.02 | 0.28 | 96 | 1013.0 |
| 20260507142601 | 55 | 71 | 0.0 | 1.0 | 0.00 | 2.02 | 0.28 | 97 | 1013.0 |
| 20260507142101 | 55 | 93 | 0.0 | 2.0 | 0.00 | 2.02 | 0.28 | 96 | 1012.9 |
| 20260507141633 | 55 | 93 | 0.0 | 2.0 | 0.00 | 2.02 | 0.28 | 96 | 1012.9 |
| 20260507141100 | 55 | 20 | 0.0 | 2.0 | 0.00 | 2.02 | 0.28 | 96 | 1012.8 |
| 20260507140600 | 55 | 322 | 0.0 | 2.0 | 0.00 | 2.02 | 0.28 | 97 | 1012.7 |
| 20260507140113 | 55 | 322 | 0.0 | 2.0 | 0.00 | 2.02 | 0.28 | 96 | 1012.8 |
| 20260507135559 | 55 | 322 | 0.0 | 2.0 | 0.00 | 2.33 | 0.28 | 96 | 1012.8 |
| 20260507135056 | 55 | 310 | 1.0 | 2.0 | 0.00 | 2.33 | 0.28 | 96 | 1012.7 |
| 20260507134600 | 55 | 346 | 1.0 | 3.0 | 0.00 | 2.33 | 0.28 | 96 | 1012.5 |
| 20260507134055 | 56 | 323 | 1.0 | 3.0 | 0.00 | 2.33 | 0.28 | 97 | 1012.7 |
| 20260507133555 | 56 | 249 | 0.0 | 2.0 | 0.00 | 2.33 | 0.28 | 97 | 1012.6 |
| 20260507133100 | 56 | 249 | 0.0 | 2.0 | 0.00 | 2.33 | 0.28 | 97 | 1012.5 |
| 20260507132554 | 56 | 240 | 0.0 | 1.0 | 0.00 | 2.33 | 0.28 | 97 | 1012.4 |
| 20260507132054 | 56 | 174 | 0.0 | 1.0 | 0.00 | 2.33 | 0.28 | 97 | 1012.5 |
| 20260507131616 | 56 | 173 | 0.0 | 1.0 | 0.00 | 2.33 | 0.28 | 97 | 1012.4 |
| 20260507131053 | 56 | 173 | 0.0 | 3.0 | 0.00 | 2.33 | 0.28 | 96 | 1012.2 |
| 20260507130652 | 56 | 173 | 1.0 | 3.0 | 0.00 | 2.33 | 0.28 | 97 | 1012.0 |
| 20260507130052 | 56 | 5 | 0.0 | 2.0 | 0.00 | 2.33 | 0.28 | 97 | 1012.1 |
| 20260507125551 | 56 | 5 | 1.0 | 2.0 | 0.00 | 2.78 | 0.28 | 97 | 1012.1 |
| 20260507125050 | 56 | 5 | 0.0 | 2.0 | 0.00 | 2.78 | 0.28 | 97 | 1012.1 |
| 20260507124555 | 56 | 5 | 0.0 | 1.0 | 0.00 | 2.78 | 0.28 | 97 | 1012.1 |
| 20260507124049 | 56 | 5 | 0.0 | 2.0 | 0.00 | 2.78 | 0.28 | 97 | 1011.9 |
| 20260507123549 | 56 | 5 | 0.0 | 1.0 | 0.00 | 2.78 | 0.28 | 97 | 1012.0 |
| 20260507123050 | 56 | 5 | 0.0 | 2.0 | 0.00 | 2.78 | 0.28 | 97 | 1011.8 |
| 20260507122548 | 56 | 5 | 0.0 | 2.0 | 0.00 | 2.78 | 0.28 | 97 | 1011.8 |
| 20260507122052 | 56 | 5 | 0.0 | 1.0 | 0.00 | 2.78 | 0.28 | 96 | 1011.8 |
| 20260507121548 | 56 | 5 | 0.0 | 2.0 | 0.00 | 2.78 | 0.28 | 97 | 1011.9 |
| 20260507121049 | 56 | 5 | 0.0 | 2.0 | 0.00 | 2.78 | 0.28 | 97 | 1012.0 |
| 20260507120547 | 56 | 5 | 0.0 | 2.0 | 0.00 | 2.78 | 0.28 | 96 | 1011.9 |
| 20260507120048 | 56 | 5 | 0.0 | 2.0 | 0.00 | 2.78 | 0.28 | 96 | 1011.8 |
| 20260507115547 | 56 | 5 | 0.0 | 1.0 | 0.00 | 2.79 | 0.28 | 96 | 1011.9 |
| 20260507115046 | 56 | 5 | 0.0 | 1.0 | 0.00 | 2.79 | 0.28 | 96 | 1011.8 |
| 20260507114546 | 56 | 5 | 0.0 | 2.0 | 0.00 | 2.79 | 0.28 | 96 | 1011.8 |
| 20260507114051 | 56 | 5 | 0.0 | 2.0 | 0.00 | 2.79 | 0.28 | 96 | 1011.8 |
| 20260507113546 | 56 | 5 | 0.0 | 1.0 | 0.00 | 2.79 | 0.28 | 96 | 1011.7 |
| 20260507113106 | 56 | 5 | 0.0 | 2.0 | 0.00 | 2.79 | 0.28 | 96 | 1011.4 |
| 20260507112548 | 56 | 5 | 0.0 | 2.0 | 0.00 | 2.79 | 0.28 | 96 | 1011.1 |
| 20260507112044 | 56 | 5 | 0.0 | 2.0 | 0.00 | 2.79 | 0.28 | 96 | 1011.2 |
| 20260507111544 | 56 | 5 | 0.0 | 1.0 | 0.00 | 2.79 | 0.28 | 96 | 1011.2 |
| 20260507111043 | 56 | 5 | 0.0 | 1.0 | 0.00 | 2.79 | 0.28 | 96 | 1011.3 |
| 20260507110544 | 56 | 5 | 0.0 | 2.0 | 0.00 | 2.79 | 0.28 | 96 | 1011.2 |
| 20260507110043 | 56 | 5 | 0.0 | 2.0 | 0.00 | 2.79 | 0.28 | 96 | 1010.9 |
| 20260507105541 | 57 | 5 | 0.0 | 1.0 | 0.00 | 2.79 | 0.28 | 96 | 1010.9 |
| 20260507105042 | 57 | 5 | 0.0 | 1.0 | 0.01 | 2.79 | 0.28 | 96 | 1010.6 |
| 20260507104552 | 57 | 5 | 0.0 | 1.0 | 0.01 | 2.79 | 0.28 | 96 | 1010.6 |
| 20260507104042 | 57 | 17 | 0.0 | 2.0 | 0.01 | 2.79 | 0.28 | 96 | 1010.4 |
| 20260507103542 | 57 | 17 | 0.0 | 2.0 | 0.03 | 2.79 | 0.28 | 96 | 1010.8 |
| 20260507103040 | 57 | 17 | 0.0 | 2.0 | 0.06 | 2.79 | 0.28 | 96 | 1010.5 |
| 20260507102539 | 57 | 15 | 0.0 | 2.0 | 0.08 | 2.79 | 0.28 | 96 | 1010.4 |
| 20260507102039 | 57 | 15 | 0.0 | 2.0 | 0.08 | 2.79 | 0.28 | 96 | 1010.6 |
| 20260507101539 | 57 | 32 | 0.0 | 2.0 | 0.09 | 2.79 | 0.28 | 96 | 1010.8 |
| 20260507101038 | 57 | 38 | 0.0 | 1.0 | 0.09 | 2.79 | 0.28 | 96 | 1010.7 |
| 20260507100538 | 57 | 38 | 0.0 | 1.0 | 0.09 | 2.79 | 0.28 | 97 | 1010.8 |
| 20260507100051 | 58 | 38 | 0.0 | 1.0 | 0.10 | 2.79 | 0.28 | 96 | 1010.7 |
| 20260507095540 | 58 | 38 | 0.0 | 0.0 | 0.11 | 2.79 | 0.28 | 96 | 1010.6 |
| 20260507095040 | 58 | 38 | 0.0 | 1.0 | 0.11 | 2.78 | 0.27 | 96 | 1010.9 |
| 20260507094540 | 58 | 38 | 0.0 | 1.0 | 0.12 | 2.78 | 0.27 | 96 | 1010.7 |
| 20260507094039 | 58 | 38 | 0.0 | 2.0 | 0.13 | 2.78 | 0.27 | 96 | 1010.7 |
| 20260507093538 | 58 | 38 | 0.0 | 2.0 | 0.12 | 2.76 | 0.25 | 96 | 1010.7 |
| 20260507093038 | 58 | 37 | 0.0 | 2.0 | 0.10 | 2.73 | 0.22 | 96 | 1011.0 |
| 20260507092536 | 58 | 37 | 0.0 | 1.0 | 0.09 | 2.71 | 0.20 | 96 | 1011.0 |
| 20260507092037 | 58 | 37 | 0.0 | 1.0 | 0.09 | 2.71 | 0.20 | 96 | 1011.3 |
| 20260507091540 | 58 | 37 | 0.0 | 1.0 | 0.08 | 2.70 | 0.19 | 96 | 1011.2 |
| 20260507091038 | 58 | 37 | 0.0 | 1.0 | 0.08 | 2.70 | 0.19 | 96 | 1010.8 |
| 20260507090533 | 58 | 37 | 0.0 | 2.0 | 0.08 | 2.70 | 0.19 | 96 | 1010.4 |
| 20260507090034 | 58 | 49 | 0.0 | 2.0 | 0.07 | 2.69 | 0.18 | 96 | 1010.1 |
| 20260507085533 | 58 | 50 | 0.0 | 2.0 | 0.06 | 2.68 | 0.17 | 96 | 1010.0 |
| 20260507085032 | 59 | 50 | 1.0 | 2.0 | 0.05 | 2.67 | 0.16 | 96 | 1010.2 |
| 20260507084546 | 59 | 12 | 0.0 | 0.0 | 0.04 | 2.66 | 0.15 | 96 | 1010.6 |
| 20260507084031 | 59 | 12 | 0.0 | 0.0 | 0.03 | 2.65 | 0.14 | 96 | 1010.8 |
| 20260507083531 | 59 | 12 | 0.0 | 0.0 | 0.02 | 2.64 | 0.13 | 96 | 1011.0 |
| 20260507083031 | 59 | 12 | 0.0 | 0.0 | 0.00 | 2.62 | 0.11 | 96 | 1010.8 |
| 20260507082530 | 59 | 12 | 0.0 | 0.0 | 0.00 | 2.62 | 0.11 | 96 | 1010.7 |
| 20260507082031 | 59 | 12 | 0.0 | 2.0 | 0.00 | 2.62 | 0.11 | 96 | 1010.9 |
| 20260507081529 | 59 | 12 | 0.0 | 2.0 | 0.00 | 2.62 | 0.11 | 96 | 1010.5 |
| 20260507081028 | 60 | 36 | 0.0 | 2.0 | 0.00 | 2.62 | 0.11 | 96 | 1010.8 |
| 20260507080528 | 60 | 69 | 0.0 | 2.0 | 0.00 | 2.62 | 0.11 | 96 | 1010.8 |
| 20260507080027 | 60 | 350 | 0.0 | 2.0 | 0.00 | 2.62 | 0.11 | 96 | 1010.7 |
| 20260507075526 | 60 | 355 | 0.0 | 2.0 | 0.00 | 2.62 | 0.11 | 96 | 1010.8 |
| 20260507075025 | 60 | 11 | 0.0 | 2.0 | 0.00 | 2.62 | 0.11 | 96 | 1010.4 |
| 20260507074525 | 60 | 11 | 1.0 | 2.0 | 0.00 | 2.62 | 0.11 | 96 | 1010.5 |
| 20260507074024 | 60 | 11 | 0.0 | 2.0 | 0.00 | 2.62 | 0.11 | 96 | 1010.5 |
| 20260507073524 | 61 | 11 | 1.0 | 2.0 | 0.00 | 2.62 | 0.11 | 96 | 1010.6 |
| 20260507073025 | 61 | 11 | 0.0 | 2.0 | 0.00 | 2.62 | 0.11 | 96 | 1010.5 |
| 20260507072522 | 61 | 28 | 0.0 | 2.0 | 0.00 | 2.62 | 0.11 | 96 | 1010.4 |
| 20260507072021 | 61 | 28 | 0.0 | 2.0 | 0.00 | 2.62 | 0.11 | 96 | 1010.0 |
| 20260507071522 | 62 | 28 | 0.0 | 2.0 | 0.00 | 2.62 | 0.11 | 97 | 1009.9 |
| 20260507071020 | 62 | 28 | 0.0 | 2.0 | 0.00 | 2.62 | 0.11 | 96 | 1010.0 |
| 20260507070520 | 62 | 28 | 0.0 | 2.0 | 0.00 | 2.62 | 0.11 | 97 | 1010.3 |
| 20260507070022 | 62 | 133 | 1.0 | 2.0 | 0.00 | 2.62 | 0.11 | 96 | 1010.3 |
| 20260507065516 | 63 | 133 | 0.0 | 2.0 | 0.00 | 2.62 | 0.11 | 96 | 1010.4 |
| 20260507065016 | 63 | 133 | 0.0 | 1.0 | 0.00 | 2.62 | 0.11 | 97 | 1010.4 |
| 20260507064516 | 63 | 133 | 0.0 | 1.0 | 0.00 | 2.62 | 0.11 | 97 | 1010.7 |
| 20260507064015 | 63 | 133 | 0.0 | 0.0 | 0.00 | 2.62 | 0.11 | 97 | 1010.8 |
| 20260507063518 | 63 | 109 | 0.0 | 0.0 | 0.00 | 2.62 | 0.11 | 97 | 1010.8 |
| 20260507063016 | 63 | 109 | 0.0 | 0.0 | 0.00 | 2.62 | 0.11 | 97 | 1010.9 |
| 20260507062515 | 63 | 109 | 0.0 | 0.0 | 0.00 | 2.62 | 0.11 | 97 | 1010.9 |
| 20260507062014 | 63 | 98 | 0.0 | 0.0 | 0.00 | 2.62 | 0.11 | 97 | 1010.7 |
| 20260507061515 | 63 | 98 | 0.0 | 0.0 | 0.00 | 2.62 | 0.11 | 97 | 1010.9 |
| 20260507061016 | 63 | 98 | 0.0 | 0.0 | 0.00 | 2.62 | 0.11 | 97 | 1011.0 |
| 20260507060513 | 63 | 98 | 0.0 | 0.0 | 0.00 | 2.62 | 0.11 | 97 | 1011.2 |
| 20260507060014 | 63 | 98 | 0.0 | 0.0 | 0.00 | 2.62 | 0.11 | 97 | 1011.2 |
| 20260507055513 | 63 | 98 | 0.0 | 0.0 | 0.00 | 2.62 | 0.11 | 97 | 1011.0 |
| 20260507055012 | 63 | 98 | 0.0 | 0.0 | 0.00 | 2.62 | 0.11 | 97 | 1010.9 |
| 20260507054512 | 63 | 98 | 0.0 | 0.0 | 0.00 | 2.62 | 0.11 | 97 | 1010.9 |
| 20260507054012 | 63 | 98 | 0.0 | 0.0 | 0.00 | 2.62 | 0.11 | 97 | 1010.6 |
| 20260507053517 | 63 | 98 | 0.0 | 1.0 | 0.01 | 2.62 | 0.11 | 97 | 1010.5 |
| 20260507053014 | 63 | 98 | 0.0 | 0.0 | 0.02 | 2.62 | 0.11 | 97 | 1010.9 |
| 20260507052512 | 63 | 98 | 0.0 | 1.0 | 0.03 | 2.62 | 0.11 | 97 | 1010.6 |
| 20260507052012 | 63 | 98 | 0.0 | 1.0 | 0.08 | 2.62 | 0.11 | 97 | 1010.5 |
| 20260507051512 | 63 | 98 | 0.0 | 1.0 | 0.09 | 2.62 | 0.11 | 97 | 1010.4 |
| 20260507051016 | 63 | 98 | 0.0 | 1.0 | 0.11 | 2.62 | 0.11 | 97 | 1010.6 |
| 20260507050511 | 63 | 98 | 0.0 | 1.0 | 0.11 | 2.62 | 0.11 | 97 | 1010.3 |
| 20260507050034 | 63 | 98 | 0.0 | 1.0 | 0.11 | 2.62 | 0.11 | 97 | 1010.1 |
| 20260507045511 | 63 | 98 | 0.0 | 1.0 | 0.11 | 2.62 | 0.11 | 97 | 1010.2 |
| 20260507045009 | 63 | 98 | 0.0 | 1.0 | 0.11 | 2.62 | 0.11 | 97 | 1010.3 |
| 20260507044511 | 63 | 98 | 0.0 | 0.0 | 0.11 | 2.62 | 0.11 | 97 | 1010.8 |
| 20260507044007 | 64 | 98 | 0.0 | 2.0 | 0.11 | 2.62 | 0.11 | 97 | 1010.9 |
| 20260507043607 | 64 | 98 | 0.0 | 2.0 | 0.10 | 2.61 | 0.10 | 97 | 1010.9 |
| 20260507043006 | 63 | 106 | 0.0 | 2.0 | 0.09 | 2.60 | 0.09 | 97 | 1010.9 |
| 20260507042508 | 64 | 106 | 0.0 | 2.0 | 0.08 | 2.59 | 0.08 | 97 | 1011.3 |
| 20260507042005 | 64 | 111 | 0.0 | 1.0 | 0.03 | 2.54 | 0.03 | 97 | 1011.4 |
| 20260507041505 | 64 | 100 | 0.0 | 1.0 | 0.03 | 2.52 | 0.02 | 97 | 1011.5 |
| 20260507041004 | 64 | 99 | 0.0 | 1.0 | 0.01 | 2.50 | 0.00 | 97 | 1011.0 |
| 20260507040504 | 64 | 99 | 0.0 | 0.0 | 0.01 | 2.50 | 0.00 | 96 | 1011.4 |
| 20260507040002 | 64 | 99 | 0.0 | 0.0 | 0.03 | 2.50 | 2.50 | 96 | 1011.2 |